Home   Weather   El Paso   Past weeks

Flag for USA Past Weather in El Paso, Texas, USA — Yesterday and Last 2 Weeks

Now
58 °F

Passing clouds.


Feels Like: 57 °F
Forecast: 57 / 81 °F
Wind: 7 mph from North

Location: El Paso International Airport

Current Time: Apr 26, 2017 at 8:01:31 am

Latest Report: Apr 26, 2017 at 6:51 am


Visibility: 10 mi

Pressure: 29.69 "Hg (25.92 "Hg at 1142m altitude)

Humidity: 28%

Dew Point: 25 °F

Location of El PasoLocation

Past Weather in El Paso — Graph

°F

El Paso Temperature Yesterday

Maximum temperature yesterday: 84 °F (at 2:51 pm)
Minimum temperature yesterday: 68 °F (at 6:51 am)
Average temperature yesterday: 76 °F

High & Low Weather Summary for the Past Weeks

 TemperatureHumidityPressure
High91 °F (Apr 20, 3:51 pm)77% (Apr 13, 4:51 am)30.09 "Hg (Apr 13, 4:51 am)
Low52 °F (Apr 16, 5:51 am)2% (Apr 21, 3:51 pm)29.34 "Hg (Apr 25, 6:51 pm)
Average74 °F20%29.76 "Hg
* Reported Apr 11 5:51 am — Apr 26 5:51 am, El Paso, Weather by CustomWeather, © 2017

Note: Actual official high and low records may vary slightly from our data, if they occured in-between our weather recording intervals... More about our weather records

Advertising

El Paso Weather History for the Previous 24 Hours

Scroll right to see more
 ConditionsComfort  
Time TempWeatherWind HumidityBarometerVisibility
5:51 am
Wed, Apr 26
56 °FPassing clouds.No wind36%29.66 "Hg10 mi
4:51 am57 °FPassing clouds.6 mph37%29.63 "Hg10 mi
3:51 am57 °FPassing clouds.7 mph39%29.62 "Hg10 mi
2:51 am59 °FPassing clouds.16 mph36%29.60 "Hg10 mi
1:51 am65 °FPassing clouds.14 mph27%29.57 "Hg10 mi
12:51 am68 °FPassing clouds.30 mph22%29.52 "Hg10 mi
11:51 pm
Tue, Apr 25
70 °FPassing clouds.23 mph23%29.51 "Hg10 mi
10:51 pm72 °FPassing clouds.21 mph24%29.51 "Hg10 mi
9:51 pm73 °FPassing clouds.26 mph22%29.46 "Hg10 mi
8:51 pm75 °FPassing clouds.28 mph20%29.42 "Hg10 mi
7:51 pm77 °FPassing clouds.28 mph18%29.39 "Hg10 mi
6:51 pm80 °FPartly sunny.31 mph15%29.34 "Hg10 mi
5:51 pm83 °FScattered clouds.28 mph11%29.35 "Hg6 mi
4:51 pm84 °FScattered clouds.22 mph10%29.35 "Hg7 mi
3:51 pm84 °FScattered clouds.32 mph10%29.35 "Hg6 mi
2:51 pm84 °FScattered clouds.25 mph10%29.38 "Hg6 mi
1:51 pm83 °FScattered clouds.39 mph10%29.40 "Hg5 mi
12:51 pm81 °FScattered clouds.32 mph11%29.43 "Hg7 mi
11:51 am81 °FScattered clouds.32 mph10%29.45 "Hg6 mi
10:51 am78 °FScattered clouds.33 mph10%29.46 "Hg5 mi
9:51 am75 °FScattered clouds.37 mph11%29.47 "Hg10 mi
8:51 am72 °FScattered clouds.35 mph14%29.49 "Hg10 mi
Weather by CustomWeather, © 2017

See weather overviewHow to use our weather pages